Flag for Jamaica Weather past 2 weeks in Montego Bay, Jamaica

Now
88 °F

Passing clouds.


Feels Like: 94 °F
Forecast: 78 / 89 °F
Wind: 6 mph from Southeast

Location: Montego Bay / Sangster

Current Time: Jul 31, 2015 at 9:20:56 AM

Latest Report: Jul 31, 2015 at 9:00 AM


Visibility: N/A

Pressure: 30.01 "Hg

Humidity: 59%

Dew point: 72 °F

Location of Montego BayLocation

Historic Weather in Montego Bay — Graph

°F

Montego Bay temperature yesterday

Maximum temperature yesterday: 88 °F (at 11:00 AM)
Minimum temperature yesterday: 77 °F (at 6:00 AM)
Average temperature yesterday: 84 °F

Past Weeks' High & Low Weather Summary

 TemperatureHumidityPressure
High91 °F (Jul 25, 12:00 PM)94% (Jul 17, 7:00 PM)30.07 "Hg (Jul 17, 7:00 PM)
Low77 °F (Jul 18, 4:00 AM)49% (Jul 29, 3:00 PM)29.86 "Hg (Jul 26, 3:00 PM)
Average84 °F75%29.97 "Hg
* Reported Jul 16 8:00 AM — Jul 31 8:00 AM, Montego Bay, Weather by CustomWeather, © 2015

Note: Actual official high and low records may vary slightly from our data, if they occured in-between our weather recording intervals... More about our weather records

Advertising

Montego Bay weather history for previous 24 hours

 ConditionsComfort  
Time TempWeatherWind HumidityBarometerVisibility
8:00 AM
Fri, Jul 31
84 °FPassing clouds.6 mph66%30.01 "HgN/A
7:00 AM81 °FPassing clouds.2 mph84%30.01 "HgN/A
6:00 AM79 °FPassing clouds.3 mph94%29.98 "HgN/A
5:00 AM79 °FPassing clouds.1 mph94%29.98 "HgN/A
4:00 AM82 °FPassing clouds.2 mph84%29.95 "HgN/A
3:00 AM81 °FThundershowers. Passing clouds.3 mph89%29.95 "HgN/A
2:00 AM81 °FThundershowers. Passing clouds.1 mph89%29.98 "HgN/A
1:00 AM82 °FThundershowers. Passing clouds.3 mph84%29.98 "HgN/A
12:00 AM82 °FPassing clouds.1 mph84%30.01 "HgN/A
11:00 PM
Thu, Jul 30
82 °FPassing clouds.2 mph84%30.01 "HgN/A
10:00 PM82 °FPassing clouds.2 mph84%30.01 "HgN/A
9:00 PM82 °FPassing clouds.2 mph84%30.01 "HgN/A
8:00 PM82 °FPassing clouds.2 mph84%29.98 "HgN/A
7:00 PM82 °FPassing clouds.5 mph84%29.98 "HgN/A
6:00 PM86 °FPassing clouds.9 mph70%29.95 "HgN/A
5:00 PM86 °FPassing clouds.14 mph75%29.92 "HgN/A
4:00 PM88 °FPassing clouds.16 mph70%29.92 "HgN/A
3:00 PM88 °FPassing clouds.18 mph75%29.95 "HgN/A
2:00 PM88 °FPassing clouds.17 mph75%29.95 "HgN/A
1:00 PM88 °FPassing clouds.18 mph75%29.98 "HgN/A
12:00 PM88 °FPassing clouds.15 mph70%29.98 "HgN/A
11:00 AM88 °FPassing clouds.17 mph70%30.01 "HgN/A
10:00 AM86 °FSunny.14 mph70%30.01 "Hg10 mi
9:00 AM86 °FSunny.10 mph66%30.01 "Hg10 mi
Weather by CustomWeather, © 2015

See weather overviewHow to use our weather pages